| time (UTC) | temp C | wind direction | speed KPH | gust KPH | rain 1hr cm | rain 24hr cm | rain mn cm | humidity % | barometer mb |
| 20260504081527 | 5 | 280 | 0.0 | 0.0 | 0.00 | 0.00 | 0.00 | 88 | 1012.6 |
| 20260504050020 | 5 | 149 | 3.2 | 6.4 | 0.00 | 0.00 | 0.00 | 79 | 1013.1 |
| 20260504044526 | 6 | 148 | 0.0 | 3.2 | 0.00 | 0.00 | 0.00 | 76 | 1013.1 |
| 20260504043026 | 6 | 148 | 0.0 | 4.8 | 0.00 | 0.00 | 0.00 | 77 | 1013.2 |
| 20260504041508 | 7 | 150 | 3.2 | 8.0 | 0.00 | 0.00 | 0.00 | 74 | 1013.0 |
| 20260504040021 | 7 | 156 | 0.0 | 3.2 | 0.00 | 0.00 | 0.00 | 72 | 1012.8 |
| 20260504034520 | 7 | 156 | 0.0 | 4.8 | 0.00 | 0.00 | 0.00 | 71 | 1012.9 |
| 20260504033025 | 7 | 156 | 0.0 | 1.6 | 0.00 | 0.00 | 0.00 | 69 | 1012.7 |
| 20260504031527 | 7 | 142 | 3.2 | 8.0 | 0.00 | 0.00 | 0.00 | 70 | 1012.9 |
| 20260504030038 | 7 | 150 | 3.2 | 6.4 | 0.00 | 0.00 | 0.00 | 70 | 1012.7 |
| 20260504024516 | 8 | 148 | 3.2 | 6.4 | 0.00 | 0.00 | 0.00 | 65 | 1012.7 |
| 20260504023023 | 9 | 171 | 0.0 | 6.4 | 0.00 | 0.00 | 0.00 | 61 | 1012.7 |
| 20260504021528 | 10 | 150 | 1.6 | 8.0 | 0.00 | 0.00 | 0.00 | 61 | 1012.6 |
| 20260504020050 | 11 | 196 | 3.2 | 4.8 | 0.00 | 0.00 | 0.00 | 55 | 1012.5 |
| 20260504014528 | 11 | 215 | 1.6 | 4.8 | 0.00 | 0.00 | 0.00 | 56 | 1012.6 |
| 20260504013019 | 11 | 157 | 3.2 | 6.4 | 0.00 | 0.00 | 0.00 | 58 | 1012.5 |
| 20260504011523 | 12 | 180 | 1.6 | 4.8 | 0.00 | 0.00 | 0.00 | 52 | 1012.3 |
| 20260504004547 | 13 | 172 | 3.2 | 4.8 | 0.00 | 0.00 | 0.00 | 50 | 1012.2 |
| 20260504003050 | 13 | 202 | 0.0 | 0.0 | 0.00 | 0.00 | 0.00 | 45 | 1012.1 |
| 20260504001520 | 14 | 202 | 0.0 | 4.8 | 0.00 | 0.00 | 0.00 | 45 | 1011.9 |
| 20260503234542 | 15 | 288 | 3.2 | 11.3 | 0.00 | 0.00 | 0.00 | 43 | 1011.7 |
| 20260503233044 | 15 | 281 | 8.0 | 17.7 | 0.00 | 0.00 | 0.00 | 42 | 1011.6 |
| 20260503231520 | 16 | 288 | 6.4 | 19.3 | 0.00 | 0.00 | 0.00 | 42 | 1011.4 |
| 20260503230043 | 16 | 275 | 11.3 | 19.3 | 0.00 | 0.00 | 0.00 | 40 | 1011.3 |
| 20260503224527 | 16 | 270 | 12.9 | 20.9 | 0.00 | 0.00 | 0.00 | 40 | 1011.3 |
| 20260503223028 | 16 | 305 | 11.3 | 25.7 | 0.00 | 0.00 | 0.00 | 41 | 1011.4 |
| 20260503221529 | 16 | 299 | 11.3 | 20.9 | 0.00 | 0.00 | 0.00 | 41 | 1011.5 |
| 20260503220038 | 16 | 309 | 16.1 | 27.4 | 0.00 | 0.00 | 0.00 | 41 | 1011.5 |
| 20260503214524 | 16 | 288 | 14.5 | 24.1 | 0.00 | 0.00 | 0.00 | 42 | 1011.5 |
| 20260503213028 | 16 | 302 | 14.5 | 25.7 | 0.00 | 0.00 | 0.00 | 41 | 1011.6 |
| 20260503211525 | 16 | 305 | 16.1 | 32.2 | 0.00 | 0.00 | 0.00 | 40 | 1011.5 |
| 20260503210027 | 16 | 240 | 14.5 | 24.1 | 0.00 | 0.00 | 0.00 | 41 | 1011.6 |
| 20260503204539 | 15 | 292 | 19.3 | 37.0 | 0.00 | 0.00 | 0.00 | 42 | 1011.5 |
| 20260503203013 | 15 | 327 | 17.7 | 37.0 | 0.00 | 0.00 | 0.00 | 43 | 1011.6 |
| 20260503201508 | 15 | 277 | 20.9 | 29.0 | 0.00 | 0.00 | 0.00 | 40 | 1011.7 |
| 20260503200015 | 15 | 272 | 14.5 | 29.0 | 0.00 | 0.00 | 0.00 | 42 | 1012.0 |
| 20260503194523 | 15 | 275 | 25.7 | 35.4 | 0.00 | 0.00 | 0.00 | 40 | 1012.1 |
| 20260503193029 | 15 | 310 | 17.7 | 32.2 | 0.00 | 0.00 | 0.00 | 41 | 1012.3 |
| 20260503191513 | 15 | 267 | 17.7 | 37.0 | 0.00 | 0.00 | 0.00 | 42 | 1012.5 |
| 20260503190013 | 14 | 352 | 9.7 | 32.2 | 0.00 | 0.00 | 0.00 | 42 | 1012.7 |
| 20260503184518 | 14 | 260 | 17.7 | 38.6 | 0.00 | 0.00 | 0.00 | 40 | 1012.9 |
| 20260503183035 | 13 | 281 | 24.1 | 35.4 | 0.00 | 0.00 | 0.00 | 41 | 1013.2 |
| 20260503181526 | 13 | 294 | 16.1 | 30.6 | 0.00 | 0.00 | 0.00 | 45 | 1013.2 |
| 20260503180016 | 13 | 302 | 25.7 | 35.4 | 0.00 | 0.00 | 0.00 | 44 | 1013.1 |
| 20260503174514 | 13 | 281 | 19.3 | 49.9 | 0.00 | 0.00 | 0.00 | 47 | 1013.3 |
| 20260503173018 | 12 | 311 | 17.7 | 37.0 | 0.00 | 0.00 | 0.00 | 47 | 1013.5 |
| 20260503171546 | 12 | 320 | 9.7 | 30.6 | 0.00 | 0.00 | 0.00 | 49 | 1013.7 |